Location: Artiguedieu
(43.5000°N, 0.5454°E)
Time: 12:40:28
(UTC+00:00)

Cosmos 1939 Rocket - Pass Details

Date: 06 December 2020
Orbit: 532 x 584 km, 97.4° (Epoch: 28 January)

Event Time Altitude Azimuth Distance (km) Brightness Sun altitude
Rises 06:34:24 0° 17° (NNE) 2,801 6.4 -7.6°
Reaches altitude 10° 06:36:37 10° 23° (NNE) 1,903 5.6 -7.2°
Maximum altitude 06:40:39 50° 99° (E) 746 4.0 -6.6°
Drops below altitude 10° 06:44:40 10° 176° (S) 1,900 6.0 -5.9°
Sets 06:46:52 0° 181° (S) 2,796 6.8 -5.5°
